SCP
0 0 0 0 0 0 0 0 0 0 0 0 0 0 0 0 0 0 0 0 0 0 0 0 0 0 0 0 0 0 0 0 0 0 0 0 0 0 0 0 0 0 0 0 0
0 0 0 0 0 0 0 0 0 0 0 0 0 0 0 0 -0 0 0 0 0 0 0 0 0 0 0 0 0 0 0 0 0 0 0 0 0 0 0 0 0 0 0 0 0
0 0 0 0 0 0 0 0 0 0 0 0 0 0 0 0 -0 -0 0 0 0 0 0 0 0 0 0 0 0 0 0 0 0 0 0 0 0 0 0 0 0 0 0 0 0
0 0 0 0 0 0 0 0 0 0 0 0 0 0 0 0 0 0 0 0 0 0 0 0 0 0 0 0 0 0 0 0 0 0 0 0 0 0 0 -0 0 0 0 0 0
0 0 0 0 0 0 0 0 0 0 0 0 0 0 0 0 0 0 0 0 0 0 0 0 0 0 0 0 0 0 0 0 0 0 0 0 0 0 0 -0 0 0 0 0 0
0 0 0 0 0 0 0 0 0 0 0 0 0 0 0 0 0 0 0 0 0 0 0 0 0 0 0 0 0 0 0 0 0 0 0 0 0 0 0 0 0 0 0 0 0
0 0 0 0 0 0 0 0 0 0 0 0 0 0 0 0 0 0 0 0 0 0 0 0 0 0 0 0 0 0 0 0 0 0 0 0 0 0 0 0 0 -0 0 0 0
0 0 0 0 0 0 0 0 0 0 0 0 0 0 0 -0 0 0 0 0 0 0 0 0 0 0 0 0 0 0 0 0 0 0 0 0 0 0 0 0 0 -0 0 0 0
0 0 0 0 0 0 0 0 0 0 0 -0 0 0 -0 0 0 0 0 0 0 0 0 0 0 0 0 0 0 0 0 0 0 0 0 0 0 0 0 0 -0 -0 0 0 0
0 0 0 0 0 0 0 0 -0 -0 -0 -0 0 0 0 0 0 0 0 0 0 0 0 0 0 0 0 0 0 0 0 0 0 0 0 0 0 0 -0 -0 -0 -0 0 0 0
0 0 0 0 0 0 0 0 0 0 0 0 0 0 0 0 0 0 0 0 0 0 0 0 0 0 0 0 0 0 0 0 0 0 0 0 0 0 0 -0 -0 -0 0 0 0
0 0 0 0 0 0 0 0 0 0 0 0 0 0 0 0 0 0 0 0 0 0 0 0 0 0 0 0 0 0 0 0 0 0 0 0 0 0 0 -0 -0 -0 0 0 0
0 0 0 0 0 0 0 0 0 0 -0 0 0 0 0 0 0 0 0 0 0 0 0 0 0 0 0 0 0 0 0 0 0 0 0 0 0 -0 -0 -0 0 0 0 0 0
0 0 0 0 0 0 0 0 0 0 -0 -0 0 0 0 0 0 0 0 0 0 0 0 0 0 0 0 0 0 0 0 0 0 0 0 0 0 0 0 0 0 0 0 0 0
0 0 0 0 0 0 0 0 0 0 0 0 0 0 0 -0 0 0 0 0 0 0 0 0 0 0 0 0 0 0 0 0 0 0 0 0 0 -0 -0 0 0 0 0 0 0
0 0 0 0 0 0 0 0 0 0 0 0 0 0 0 0 0 0 0 0 0 0 0 0 0 0 0 0 0 0 0 0 0 0 0 0 0 -0 -0 0 0 0 0 0 0
0 0 0 0 0 0 0 0 0 0 0 0 0 0 0 -0 0 0 0 0 0 0 0 0 0 0 0 0 0 0 0 0 0 0 0 0 -0 -0 -0 -0 -0 0 0 0 0
0 0 0 0 0 0 0 0 0 0 0 0 0 0 0 -0 -0 0 0 0 0 0 0 0 0 0 0 0 0 0 0 0 0 0 0 0 -0 0 -0 -0 -0 0 0 0 0
0 0 0 0 0 0 0 -0 0 0 0 0 0 0 0 -0 -0 -0 0 0 0 0 0 0 0 0 0 0 0 0 0 0 0 0 0 0 0 0 0 0 0 0 0 0 0
0 0 0 0 0 0 0 0 0 0 -0 0 0 0 0 -0 -0 -0 0 0 0 0 0 0 0 0 0 0 0 0 0 0 0 0 0 -0 0 0 0 0 0 0 0 0 0
0 0 0 0 0 0 0 0 -0 0 -0 -0 0 0 0 0 -0 -0 -0 -0 0 0 0 0 0 0 0 0 0 0 0 0 0 0 0 0 0 0 0 0 0 0 0 0 -0
0 0 0 0 -0 -0 -0 0 0 0 0 -0 -0 -0 -0 0 0 -0 -0 -0 -0 0 0 0 0 0 0 0 0 0 0 0 0 0 0 0 0 0 0 0 0 0 0 0 -0
0 0 0 0 0 -0 -0 0 0 0 -0 -0 -0 -0 0 0 0 -0 -0 -0 -0 0 0 0 0 0 0 0 0 0 0 0 0 0 0 0 -0 -0 0 0 0 0 0 0 -0
0 0 0 0 0 0 -0 0 0 0 -0 0 0 -0 -0 0 -0 -0 -0 -0 -0 -0 0 0 0 0 0 0 0 0 0 0 0 0 0 0 0 0 0 0 0 0 0 0 -0
0 0 0 0 0 0 0 0 0 -0 0 0 -0 -0 -0 0 0 -0 -0 -0 -0 -0 0 0 0 0 0 0 0 0 0 0 0 0 0 0 0 0 0 0 0 0 0 -0 -0
0 0 0 0 0 0 0 0 0 0 0 -0 -0 0 0 -0 -0 -0 0 0 -0 -0 0 0 0 0 0 0 0 0 0 0 0 0 0 0 0 0 -0 0 0 0 -0 -0 -0
0 0 0 0 0 0 0 0 0 0 0 0 0 -0 -0 -0 -0 -0 0 0 -0 0 0 0 0 0 0 0 0 0 0 0 0 0 0 0 0 0 0 0 0 0 0 -0 -0
Wind_Speed_500mb
31 33 37 41 45 48 49 49 50 51 51 54 58 60 58 57 59 55 60 58 34 19 38 20 40 36 31 27 24 12 12 26 28 23 18 6 9 2 6 25 21 16 38 33 40
28 29 29 34 39 44 46 47 48 48 49 50 54 56 57 59 60 67 61 63 51 47 41 44 36 39 23 20 19 18 22 37 30 28 25 16 16 18 17 36 57 47 41 36 44
31 27 28 29 26 30 35 40 43 45 48 49 50 50 51 45 49 39 47 58 54 58 56 50 38 44 25 18 27 23 40 49 48 49 23 38 42 34 35 43 62 43 59 61 49
36 37 40 38 36 34 32 34 38 41 43 45 47 47 45 32 17 14 16 34 45 67 70 46 37 33 23 33 45 31 56 59 67 53 36 47 49 44 47 80 70 66 56 56 67
37 37 38 40 41 40 39 38 39 40 41 41 40 39 37 25 38 22 16 12 6 27 51 51 52 51 32 33 46 44 43 51 54 56 54 54 56 42 62 100 66 59 57 56 64
41 43 43 41 41 42 42 41 42 43 41 41 41 31 28 30 42 54 65 44 28 21 11 47 29 43 34 31 45 36 56 59 48 44 59 50 63 43 67 91 57 57 64 62 59
44 45 46 47 48 48 46 44 47 46 44 45 46 37 40 67 38 32 29 61 66 50 41 35 58 18 11 18 44 38 32 25 29 36 28 28 48 37 83 60 52 63 60 60 67
44 46 49 50 50 50 51 50 50 49 48 43 37 26 29 35 40 51 55 68 42 53 43 42 36 46 22 11 3 21 22 36 27 39 29 31 51 34 54 35 41 48 49 59 74
40 44 47 50 52 53 52 51 51 42 35 31 20 18 28 17 33 27 41 59 58 61 39 26 35 34 21 30 19 20 28 28 22 19 10 32 42 32 33 21 43 54 57 60 62
43 46 45 43 45 50 55 51 30 19 15 9 6 12 22 10 23 33 30 22 35 29 34 33 29 24 31 32 48 30 27 28 27 19 34 41 48 37 51 33 49 54 59 60 63
45 46 46 46 47 48 51 33 10 5 12 18 26 32 61 56 41 37 13 20 30 45 31 51 25 54 62 52 36 36 40 52 39 29 28 37 36 23 42 46 52 56 63 66 71
48 46 45 46 46 46 19 10 5 11 27 46 68 63 71 58 28 40 36 18 25 38 41 23 58 59 42 44 45 48 47 43 32 24 25 31 42 30 33 49 58 53 58 59 54
50 44 45 50 47 18 28 5 3 24 12 46 28 24 25 20 30 59 31 22 23 41 58 52 76 37 40 45 50 54 56 45 37 23 26 26 45 36 45 32 45 52 56 61 52
47 44 49 51 29 26 12 7 17 23 8 11 4 5 6 8 14 38 44 39 23 43 46 44 50 47 44 59 46 52 47 44 40 25 32 6 33 29 42 43 43 51 45 49 35
49 48 47 37 42 21 13 9 11 3 10 7 4 6 18 8 26 22 23 51 45 24 33 37 37 47 52 52 52 35 28 34 38 35 35 34 23 25 21 40 47 43 46 30 18
55 52 46 36 28 12 6 14 2 6 14 5 3 20 24 13 25 34 17 48 48 37 42 36 28 52 57 39 43 21 26 29 16 19 26 29 22 24 32 37 28 25 23 10 16
60 58 40 24 17 11 10 5 6 10 11 7 13 23 28 18 24 34 31 16 29 37 37 33 35 12 30 38 39 40 28 13 14 14 20 29 25 39 35 35 38 36 16 11 8
65 40 16 25 15 5 2 3 11 6 11 20 24 30 22 20 11 28 34 16 45 27 19 27 22 42 37 41 35 53 42 18 17 12 14 12 19 16 37 40 58 42 27 15 17
62 12 27 21 13 12 4 4 6 6 10 20 30 18 6 15 19 12 15 15 19 19 14 25 33 29 41 39 44 50 39 28 4 3 9 11 13 20 31 24 16 23 13 21 25
44 4 31 26 7 6 1 8 7 15 22 14 13 13 19 17 19 8 12 13 17 26 16 14 20 24 46 46 49 34 40 21 18 20 16 10 9 16 7 29 21 17 21 25 29
28 5 23 23 15 2 3 7 12 21 19 8 10 15 17 23 11 2 8 17 14 29 27 13 12 25 45 42 46 23 41 14 19 10 13 6 11 16 23 11 7 6 25 35 38
22 3 19 24 6 4 5 15 19 18 15 13 14 17 17 18 14 7 11 9 8 16 18 9 10 12 49 20 39 41 44 41 19 19 16 4 9 4 16 9 12 4 24 27 35
16 9 13 17 7 9 12 14 12 14 17 10 10 10 19 15 10 12 6 5 6 8 11 15 8 14 20 11 33 53 41 34 12 10 31 19 7 7 7 5 2 14 30 33 37
14 8 9 8 6 9 15 12 15 20 19 13 22 18 15 13 12 12 13 1 8 3 12 17 6 13 17 14 2 48 46 41 27 18 20 33 25 35 17 1 11 13 19 33 40
17 4 4 8 8 17 15 12 19 14 7 11 5 4 18 10 22 2 8 11 7 3 8 7 4 11 27 22 17 9 47 47 42 31 25 18 47 40 33 11 4 13 30 33 43
11 9 8 16 21 19 8 8 18 15 11 16 11 24 25 19 21 29 15 7 2 3 3 5 3 18 17 20 16 15 13 22 52 46 37 25 27 25 28 18 8 19 38 43 46
16 13 13 15 8 10 5 9 16 28 19 24 26 29 29 25 23 25 37 36 30 23 7 3 7 7 14 6 10 21 27 18 19 41 41 43 54 22 28 25 18 22 43 51 51
Wind_Direction_500mb
313 305 300 301 302 301 300 297 293 290 286 284 285 286 283 278 274 271 266 261 262 245 245 230 208 206 193 185 185 182 231 240 236 228 252 229 249 72 303 300 275 270 285 292 302
349 341 330 321 314 311 309 301 298 294 291 286 281 280 281 284 285 274 267 268 255 253 245 230 216 197 187 187 179 194 228 235 236 246 261 279 288 291 288 293 279 286 282 299 303
344 344 338 330 325 323 322 320 316 305 295 290 288 284 280 285 293 278 267 264 252 240 242 243 239 218 204 182 192 211 231 236 256 252 265 282 280 289 288 287 280 290 297 305 298
335 334 334 334 332 326 321 316 313 315 314 305 296 291 286 278 249 206 244 229 224 220 220 221 213 204 208 204 214 234 231 237 249 261 264 265 286 277 282 271 282 291 290 290 293
332 330 328 327 326 323 321 320 317 312 310 314 312 303 291 256 233 246 218 196 37 223 218 205 204 211 210 211 220 232 245 232 246 263 263 271 268 270 286 285 287 281 284 283 287
331 328 325 322 320 318 318 317 310 308 312 313 310 300 276 250 264 246 242 237 246 259 222 201 211 224 248 227 210 230 240 246 242 255 263 266 269 267 268 276 286 285 283 284 282
330 327 324 324 323 319 318 314 309 312 306 302 299 290 264 252 260 260 244 240 240 246 241 228 216 224 257 240 238 241 252 236 234 236 248 286 269 244 261 279 274 282 286 285 288
332 331 327 325 323 320 319 315 316 309 301 296 284 266 256 289 271 257 246 240 229 236 239 237 231 237 245 292 253 220 229 242 230 234 249 225 266 267 268 272 278 279 287 289 290
335 332 329 327 325 324 322 319 320 313 307 299 266 237 269 280 266 280 254 246 241 232 229 215 209 216 207 228 246 211 233 221 237 198 209 200 268 262 273 284 285 284 287 285 287
339 337 333 328 326 324 323 330 327 323 330 328 197 249 257 272 309 306 294 271 236 211 196 206 194 209 214 202 219 219 227 238 238 222 230 243 253 275 286 295 282 290 287 283 281
341 335 335 333 331 329 331 345 346 308 312 259 265 255 276 284 282 279 329 286 204 193 188 188 196 220 211 215 235 252 252 246 243 224 245 255 272 276 293 293 286 288 285 281 283
340 334 331 330 331 331 2 25 35 332 300 279 276 258 265 275 294 268 249 206 190 207 189 176 221 219 222 218 224 231 244 243 250 247 253 281 277 288 282 280 281 281 288 280 287
339 337 331 325 327 332 330 292 328 325 262 292 259 263 253 243 240 269 203 204 217 211 195 198 224 202 201 211 214 224 230 237 244 264 263 278 279 275 278 280 282 279 281 281 277
336 331 328 325 324 317 354 157 321 318 289 275 247 272 311 232 237 278 230 211 217 221 207 227 224 195 204 218 206 231 221 242 246 254 260 246 284 274 283 284 277 281 278 272 270
338 332 325 320 305 304 307 308 294 205 297 77 130 333 325 226 329 323 254 216 225 201 196 219 199 200 206 208 202 236 221 229 236 240 264 257 269 281 276 275 275 274 269 274 294
342 338 327 321 303 336 315 307 195 205 245 313 44 344 332 29 349 337 284 220 224 242 229 224 203 195 208 198 199 184 216 210 222 237 247 252 243 277 265 257 275 267 255 303 309
341 336 327 326 290 297 311 341 194 232 330 10 344 329 317 354 2 342 319 220 219 200 227 220 225 209 194 194 191 189 179 176 210 218 255 249 235 244 262 249 255 262 285 298 286
343 341 18 360 339 265 190 165 228 260 278 347 338 321 308 6 44 336 328 308 214 243 242 209 193 205 190 194 187 188 185 189 194 197 225 165 212 248 242 255 245 251 275 241 180
347 47 17 350 356 131 155 224 279 298 356 330 323 305 298 1 345 357 341 298 28 245 268 212 224 189 184 180 166 191 203 192 213 37 254 167 253 283 248 257 237 237 219 186 168
353 87 18 17 82 153 191 274 285 325 323 314 286 273 300 333 328 12 322 31 352 357 323 279 232 205 183 185 202 188 174 190 212 213 233 193 261 249 240 226 213 202 195 168 165
359 48 8 356 323 316 293 280 294 294 315 298 300 296 289 293 288 84 254 320 22 332 320 282 270 174 171 201 186 178 187 188 192 220 209 243 239 209 238 218 196 183 167 169 158
2 5 3 357 50 339 313 320 312 297 334 289 279 284 268 307 287 209 238 206 0 337 327 320 302 230 198 189 193 197 188 183 188 192 211 247 250 21 256 271 251 191 140 154 162
347 304 5 14 26 339 326 314 278 299 325 310 292 302 302 299 305 305 274 65 159 11 343 343 237 224 148 163 201 200 194 190 178 156 199 202 233 175 260 264 150 161 145 161 167
352 349 352 15 30 318 334 320 317 305 306 332 285 299 313 295 283 276 296 1 199 313 352 332 255 282 204 171 128 199 195 196 194 198 191 216 218 263 278 354 91 109 155 167 172
7 21 349 306 328 330 319 303 300 322 310 317 316 313 348 304 317 89 9 318 175 16 18 20 270 313 284 277 280 171 198 200 202 207 213 204 224 237 267 295 50 185 166 177 174
357 336 299 286 301 308 304 290 293 308 306 306 276 325 324 293 293 297 285 283 28 240 280 360 343 337 255 236 248 250 200 214 212 223 233 247 251 237 274 290 235 186 175 188 185
332 313 292 283 290 291 283 277 284 305 285 259 303 312 300 292 288 278 284 271 265 274 274 243 344 335 222 338 286 250 223 201 202 227 226 228 240 256 280 273 250 197 189 198 186
Wind_Speed_850mb
31 33 37 41 45 48 49 49 50 51 51 54 58 60 58 57 59 55 60 58 34 19 38 20 40 36 31 27 24 12 12 26 28 23 18 6 9 2 6 25 21 16 38 33 40
28 29 29 34 39 44 46 47 48 48 49 50 54 56 57 59 60 67 61 63 51 47 41 44 36 39 23 20 19 18 22 37 30 28 25 16 16 18 17 36 57 47 41 36 44
31 27 28 29 26 30 35 40 43 45 48 49 50 50 51 45 49 39 47 58 54 58 56 50 38 44 25 18 27 23 40 49 48 49 23 38 42 34 35 43 62 43 59 61 49
36 37 40 38 36 34 32 34 38 41 43 45 47 47 45 32 17 14 16 34 45 67 70 46 37 33 23 33 45 31 56 59 67 53 36 47 49 44 47 80 70 66 56 56 67
37 37 38 40 41 40 39 38 39 40 41 41 40 39 37 25 38 22 16 12 6 27 51 51 52 51 32 33 46 44 43 51 54 56 54 54 56 42 62 100 66 59 57 56 64
41 43 43 41 41 42 42 41 42 43 41 41 41 31 28 30 42 54 65 44 28 21 11 47 29 43 34 31 45 36 56 59 48 44 59 50 63 43 67 91 57 57 64 62 59
44 45 46 47 48 48 46 44 47 46 44 45 46 37 40 67 38 32 29 61 66 50 41 35 58 18 11 18 44 38 32 25 29 36 28 28 48 37 83 60 52 63 60 60 67
44 46 49 50 50 50 51 50 50 49 48 43 37 26 29 35 40 51 55 68 42 53 43 42 36 46 22 11 3 21 22 36 27 39 29 31 51 34 54 35 41 48 49 59 74
40 44 47 50 52 53 52 51 51 42 35 31 20 18 28 17 33 27 41 59 58 61 39 26 35 34 21 30 19 20 28 28 22 19 10 32 42 32 33 21 43 54 57 60 62
43 46 45 43 45 50 55 51 30 19 15 9 6 12 22 10 23 33 30 22 35 29 34 33 29 24 31 32 48 30 27 28 27 19 34 41 48 37 51 33 49 54 59 60 63
45 46 46 46 47 48 51 33 10 5 12 18 26 32 61 56 41 37 13 20 30 45 31 51 25 54 62 52 36 36 40 52 39 29 28 37 36 23 42 46 52 56 63 66 71
48 46 45 46 46 46 19 10 5 11 27 46 68 63 71 58 28 40 36 18 25 38 41 23 58 59 42 44 45 48 47 43 32 24 25 31 42 30 33 49 58 53 58 59 54
50 44 45 50 47 18 28 5 3 24 12 46 28 24 25 20 30 59 31 22 23 41 58 52 76 37 40 45 50 54 56 45 37 23 26 26 45 36 45 32 45 52 56 61 52
47 44 49 51 29 26 12 7 17 23 8 11 4 5 6 8 14 38 44 39 23 43 46 44 50 47 44 59 46 52 47 44 40 25 32 6 33 29 42 43 43 51 45 49 35
49 48 47 37 42 21 13 9 11 3 10 7 4 6 18 8 26 22 23 51 45 24 33 37 37 47 52 52 52 35 28 34 38 35 35 34 23 25 21 40 47 43 46 30 18
55 52 46 36 28 12 6 14 2 6 14 5 3 20 24 13 25 34 17 48 48 37 42 36 28 52 57 39 43 21 26 29 16 19 26 29 22 24 32 37 28 25 23 10 16
60 58 40 24 17 11 10 5 6 10 11 7 13 23 28 18 24 34 31 16 29 37 37 33 35 12 30 38 39 40 28 13 14 14 20 29 25 39 35 35 38 36 16 11 8
65 40 16 25 15 5 2 3 11 6 11 20 24 30 22 20 11 28 34 16 45 27 19 27 22 42 37 41 35 53 42 18 17 12 14 12 19 16 37 40 58 42 27 15 17
62 12 27 21 13 12 4 4 6 6 10 20 30 18 6 15 19 12 15 15 19 19 14 25 33 29 41 39 44 50 39 28 4 3 9 11 13 20 31 24 16 23 13 21 25
44 4 31 26 7 6 1 8 7 15 22 14 13 13 19 17 19 8 12 13 17 26 16 14 20 24 46 46 49 34 40 21 18 20 16 10 9 16 7 29 21 17 21 25 29
28 5 23 23 15 2 3 7 12 21 19 8 10 15 17 23 11 2 8 17 14 29 27 13 12 25 45 42 46 23 41 14 19 10 13 6 11 16 23 11 7 6 25 35 38
22 3 19 24 6 4 5 15 19 18 15 13 14 17 17 18 14 7 11 9 8 16 18 9 10 12 49 20 39 41 44 41 19 19 16 4 9 4 16 9 12 4 24 27 35
16 9 13 17 7 9 12 14 12 14 17 10 10 10 19 15 10 12 6 5 6 8 11 15 8 14 20 11 33 53 41 34 12 10 31 19 7 7 7 5 2 14 30 33 37
14 8 9 8 6 9 15 12 15 20 19 13 22 18 15 13 12 12 13 1 8 3 12 17 6 13 17 14 2 48 46 41 27 18 20 33 25 35 17 1 11 13 19 33 40
17 4 4 8 8 17 15 12 19 14 7 11 5 4 18 10 22 2 8 11 7 3 8 7 4 11 27 22 17 9 47 47 42 31 25 18 47 40 33 11 4 13 30 33 43
11 9 8 16 21 19 8 8 18 15 11 16 11 24 25 19 21 29 15 7 2 3 3 5 3 18 17 20 16 15 13 22 52 46 37 25 27 25 28 18 8 19 38 43 46
16 13 13 15 8 10 5 9 16 28 19 24 26 29 29 25 23 25 37 36 30 23 7 3 7 7 14 6 10 21 27 18 19 41 41 43 54 22 28 25 18 22 43 51 51
Wind_Direction_850mb
313 305 300 301 302 301 300 297 293 290 286 284 285 286 283 278 274 271 266 261 262 245 245 230 208 206 193 185 185 182 231 240 236 228 252 229 249 72 303 300 275 270 285 292 302
349 341 330 321 314 311 309 301 298 294 291 286 281 280 281 284 285 274 267 268 255 253 245 230 216 197 187 187 179 194 228 235 236 246 261 279 288 291 288 293 279 286 282 299 303
344 344 338 330 325 323 322 320 316 305 295 290 288 284 280 285 293 278 267 264 252 240 242 243 239 218 204 182 192 211 231 236 256 252 265 282 280 289 288 287 280 290 297 305 298
335 334 334 334 332 326 321 316 313 315 314 305 296 291 286 278 249 206 244 229 224 220 220 221 213 204 208 204 214 234 231 237 249 261 264 265 286 277 282 271 282 291 290 290 293
332 330 328 327 326 323 321 320 317 312 310 314 312 303 291 256 233 246 218 196 37 223 218 205 204 211 210 211 220 232 245 232 246 263 263 271 268 270 286 285 287 281 284 283 287
331 328 325 322 320 318 318 317 310 308 312 313 310 300 276 250 264 246 242 237 246 259 222 201 211 224 248 227 210 230 240 246 242 255 263 266 269 267 268 276 286 285 283 284 282
330 327 324 324 323 319 318 314 309 312 306 302 299 290 264 252 260 260 244 240 240 246 241 228 216 224 257 240 238 241 252 236 234 236 248 286 269 244 261 279 274 282 286 285 288
332 331 327 325 323 320 319 315 316 309 301 296 284 266 256 289 271 257 246 240 229 236 239 237 231 237 245 292 253 220 229 242 230 234 249 225 266 267 268 272 278 279 287 289 290
335 332 329 327 325 324 322 319 320 313 307 299 266 237 269 280 266 280 254 246 241 232 229 215 209 216 207 228 246 211 233 221 237 198 209 200 268 262 273 284 285 284 287 285 287
339 337 333 328 326 324 323 330 327 323 330 328 197 249 257 272 309 306 294 271 236 211 196 206 194 209 214 202 219 219 227 238 238 222 230 243 253 275 286 295 282 290 287 283 281
341 335 335 333 331 329 331 345 346 308 312 259 265 255 276 284 282 279 329 286 204 193 188 188 196 220 211 215 235 252 252 246 243 224 245 255 272 276 293 293 286 288 285 281 283
340 334 331 330 331 331 2 25 35 332 300 279 276 258 265 275 294 268 249 206 190 207 189 176 221 219 222 218 224 231 244 243 250 247 253 281 277 288 282 280 281 281 288 280 287
339 337 331 325 327 332 330 292 328 325 262 292 259 263 253 243 240 269 203 204 217 211 195 198 224 202 201 211 214 224 230 237 244 264 263 278 279 275 278 280 282 279 281 281 277
336 331 328 325 324 317 354 157 321 318 289 275 247 272 311 232 237 278 230 211 217 221 207 227 224 195 204 218 206 231 221 242 246 254 260 246 284 274 283 284 277 281 278 272 270
338 332 325 320 305 304 307 308 294 205 297 77 130 333 325 226 329 323 254 216 225 201 196 219 199 200 206 208 202 236 221 229 236 240 264 257 269 281 276 275 275 274 269 274 294
342 338 327 321 303 336 315 307 195 205 245 313 44 344 332 29 349 337 284 220 224 242 229 224 203 195 208 198 199 184 216 210 222 237 247 252 243 277 265 257 275 267 255 303 309
341 336 327 326 290 297 311 341 194 232 330 10 344 329 317 354 2 342 319 220 219 200 227 220 225 209 194 194 191 189 179 176 210 218 255 249 235 244 262 249 255 262 285 298 286
343 341 18 360 339 265 190 165 228 260 278 347 338 321 308 6 44 336 328 308 214 243 242 209 193 205 190 194 187 188 185 189 194 197 225 165 212 248 242 255 245 251 275 241 180
347 47 17 350 356 131 155 224 279 298 356 330 323 305 298 1 345 357 341 298 28 245 268 212 224 189 184 180 166 191 203 192 213 37 254 167 253 283 248 257 237 237 219 186 168
353 87 18 17 82 153 191 274 285 325 323 314 286 273 300 333 328 12 322 31 352 357 323 279 232 205 183 185 202 188 174 190 212 213 233 193 261 249 240 226 213 202 195 168 165
359 48 8 356 323 316 293 280 294 294 315 298 300 296 289 293 288 84 254 320 22 332 320 282 270 174 171 201 186 178 187 188 192 220 209 243 239 209 238 218 196 183 167 169 158
2 5 3 357 50 339 313 320 312 297 334 289 279 284 268 307 287 209 238 206 0 337 327 320 302 230 198 189 193 197 188 183 188 192 211 247 250 21 256 271 251 191 140 154 162
347 304 5 14 26 339 326 314 278 299 325 310 292 302 302 299 305 305 274 65 159 11 343 343 237 224 148 163 201 200 194 190 178 156 199 202 233 175 260 264 150 161 145 161 167
352 349 352 15 30 318 334 320 317 305 306 332 285 299 313 295 283 276 296 1 199 313 352 332 255 282 204 171 128 199 195 196 194 198 191 216 218 263 278 354 91 109 155 167 172
7 21 349 306 328 330 319 303 300 322 310 317 316 313 348 304 317 89 9 318 175 16 18 20 270 313 284 277 280 171 198 200 202 207 213 204 224 237 267 295 50 185 166 177 174
357 336 299 286 301 308 304 290 293 308 306 306 276 325 324 293 293 297 285 283 28 240 280 360 343 337 255 236 248 250 200 214 212 223 233 247 251 237 274 290 235 186 175 188 185
332 313 292 283 290 291 283 277 284 305 285 259 303 312 300 292 288 278 284 271 265 274 274 243 344 335 222 338 286 250 223 201 202 227 226 228 240 256 280 273 250 197 189 198 186